[[{"header":{"parameterUnit":"m.s-1","parameterCategory":1,"la1":30.2991,"la2":30.254,"lo1":-89.0895,"lo2":-89.0444,"dy":0.0017,"dx":0.0017,"nx":28,"ny":28,"refTime":"2025-01-24T03:00:00:Z","depth":0,"parameterNumber":2,"parameterNumberName":"U-component_of_WINDS"},"data":[0,0,0,0,0,0,0,0,0,0,0,0,0,0,0,0,0,0,0,0,0,0,0,0,0,0,0,0,0,0,0,0,0,0,0,0,0,0,0,0,0,0,0,0,0,0,0,0,0,0,0,0,0,0,0,0,0,0,-0.1422,-0.1423,0,-0.1517,-0.1518,-0.1519,-0.155,-0.1549,-0.1549,-0.1548,-0.1648,-0.165,-0.1654,0,0,0,0,0,0,0,0,0,0,0,0,0,-0.1267,-0.127,-0.1422,-0.1423,-0.1424,-0.1517,-0.1518,-0.1519,-0.155,-0.1549,-0.1549,-0.1548,-0.1647,-0.165,-0.1654,0,0,0,0,0,0,0,0,0,0,0,0,0,-0.1345,-0.127,-0.1421,-0.145,-0.1454,-0.1516,-0.1518,-0.152,-0.155,-0.1549,-0.1548,-0.1548,-0.1645,-0.165,-0.1654,-0.1696,0,0,-0.1668,-0.167,0,0,0,0,0,0,0,0,-0.1341,-0.1351,-0.1445,-0.1448,-0.1452,-0.1521,-0.15,-0.1579,-0.155,-0.1513,-0.1548,-0.1547,-0.1606,-0.1614,-0.1633,-0.17,-0.1705,-0.1669,-0.1671,-0.1673,-0.1675,0,0,0,0,0,0,0,-0.1335,-0.1347,-0.1459,-0.1446,-0.1451,-0.1459,-0.1469,-0.1515,-0.1562,-0.1517,-0.1519,-0.153,-0.1608,-0.1629,-0.1636,-0.1706,-0.1669,-0.1673,-0.1675,-0.1677,-0.1811,-0.1812,0,0,0,0,0,0,-0.1325,-0.1342,-0.1456,-0.1462,-0.1394,-0.1462,-0.1474,-0.1499,-0.1562,-0.1571,-0.153,-0.1531,-0.1621,-0.163,-0.1639,-0.1691,-0.1673,-0.1678,-0.168,-0.181,-0.1811,-0.1812,0,0,0,0,0,0,-0.1321,-0.1335,-0.1453,-0.1403,-0.1419,-0.1465,-0.1494,-0.1502,-0.1522,-0.1572,-0.1581,-0.1543,-0.1621,-0.1633,-0.1681,-0.1695,-0.168,-0.1684,-0.1809,-0.181,-0.1811,-0.1796,0,0,0,0,0,0,-0.1317,-0.1333,-0.135,-0.1403,-0.1421,-0.1493,-0.1495,-0.1504,-0.153,-0.1532,-0.1586,-0.1594,-0.1621,-0.1674,-0.1686,-0.1701,-0.1687,-0.1808,-0.181,-0.1811,-0.1796,-0.1797,-0.1798,0,0,0,0,0,-0.1311,-0.1342,-0.135,-0.1364,-0.1442,-0.1493,-0.1504,-0.1533,-0.1531,-0.1548,-0.1579,-0.1593,-0.1691,-0.1679,-0.1692,-0.1709,-0.1807,-0.1809,-0.1811,-0.1795,-0.1796,-0.1798,0,0,0,0,0,0,-0.129,-0.135,-0.1359,-0.1408,-0.1445,-0.1498,-0.1521,-0.1534,-0.1573,-0.1573,-0.1609,-0.1621,-0.1666,-0.1693,-0.1677,-0.1752,-0.175,-0.1754,-0.1733,-0.1735,-0.1736,-0.1729,-0.1691,0,0,0,0,0,-0.1291,-0.1327,-0.1377,-0.1416,-0.1434,-0.1474,-0.1497,-0.1517,-0.1557,-0.1573,-0.1608,-0.1647,-0.1686,-0.1712,-0.1751,-0.1799,-0.1811,-0.1817,-0.1818,-0.1819,-0.1823,-0.1849,-0.1852,-0.1818,-0.1818,-0.1818,0,0,-0.1294,-0.1331,-0.1352,-0.1412,-0.1443,-0.148,-0.1487,-0.1526,-0.1553,-0.1579,-0.1627,-0.1653,-0.1699,-0.1747,-0.177,-0.177,-0.1834,-0.1821,-0.1821,-0.1825,-0.1851,-0.1854,-0.1857,-0.1819,-0.1819,-0.1819,0,0,-0.1317,-0.1349,-0.1384,-0.1414,-0.1461,-0.1487,-0.1495,-0.1546,-0.1564,-0.1612,-0.1632,-0.1665,-0.1733,-0.1764,-0.1789,-0.1822,-0.1836,-0.1834,-0.184,-0.1865,-0.1868,-0.187,-0.1882,-0.1886,-0.1837,-0.1837,-0.1837,0,-0.1315,-0.1371,-0.1401,-0.1438,-0.1464,-0.1487,-0.1523,-0.1551,-0.1608,-0.1626,-0.1625,-0.171,-0.1742,-0.1797,-0.1805,-0.1824,-0.1835,-0.1829,-0.1865,-0.1868,-0.187,-0.1882,-0.1886,-0.1837,-0.1837,-0.1837,-0.1837,0,-0.1366,-0.1404,-0.1427,-0.148,-0.1509,-0.1545,-0.158,-0.1605,-0.1622,-0.1648,-0.1696,-0.1735,-0.1782,-0.1796,-0.1813,-0.1854,-0.1852,-0.1857,-0.1857,-0.1873,-0.1884,-0.1889,-0.1836,-0.1836,-0.1836,-0.1836,0,0,-0.1381,-0.1448,-0.1457,-0.148,-0.1532,-0.1563,-0.1599,-0.1645,-0.1666,-0.1704,-0.1736,-0.1791,-0.1796,-0.1824,-0.1844,-0.1866,-0.189,-0.1869,-0.1871,-0.1872,-0.1936,-0.1933,-0.1937,-0.1898,-0.1899,-0.19,-0.1933,0,-0.1412,-0.1479,-0.1505,-0.156,-0.1595,-0.1616,-0.1649,-0.1684,-0.1709,-0.1742,-0.177,-0.1809,-0.1812,-0.1829,-0.1852,-0.1882,-0.1903,-0.188,-0.1929,-0.1931,-0.1918,-0.1943,-0.194,-0.1969,-0.1937,-0.1938,-0.1939,0,-0.1457,-0.1494,-0.1552,-0.1598,-0.1614,-0.1642,-0.1685,-0.1717,-0.1757,-0.1773,-0.1803,-0.1822,-0.1861,-0.1856,-0.1911,-0.1895,-0.1916,-0.1934,-0.1936,-0.1942,-0.1936,-0.1951,-0.1979,-0.1983,-0.1946,-0.1946,-0.1945,0,-0.1462,-0.1527,-0.1569,-0.1589,-0.1644,-0.1663,-0.1687,-0.1726,-0.1751,-0.1789,-0.1805,-0.1847,-0.187,-0.1902,-0.1931,-0.1925,-0.1983,-0.1981,-0.1998,-0.1997,-0.2011,-0.201,-0.2043,-0.2023,-0.2023,-0.2023,-0.2023,0,-0.1495,-0.1529,-0.1572,-0.1599,-0.1637,-0.1667,-0.1705,-0.173,-0.1765,-0.1796,-0.1817,-0.1846,-0.1883,-0.1916,-0.1939,-0.1981,-0.1991,-0.2006,-0.2012,-0.2005,-0.2003,-0.202,-0.2019,-0.2024,-0.2024,-0.2023,-0.2023,0,-0.1508,-0.1538,-0.1586,-0.1633,-0.1646,-0.1672,-0.1713,-0.1739,-0.1764,-0.1803,-0.1814,-0.1854,-0.1894,-0.1926,-0.198,-0.1995,-0.2039,-0.2045,-0.2025,-0.2029,-0.2044,-0.2042,-0.209,-0.2098,-0.2072,-0.2072,-0.2072,0,-0.1527,-0.1554,-0.1603,-0.1625,-0.1648,-0.1684,-0.1709,-0.1739,-0.1765,-0.1811,-0.1831,-0.1873,-0.1909,-0.1972,-0.2006,-0.2046,-0.2054,-0.2068,-0.2061,-0.2052,-0.2055,-0.2053,-0.2056,-0.2069,-0.2069,-0.2069,-0.2069,0,-0.1557,-0.157,-0.1605,-0.1645,-0.1675,-0.1708,-0.1741,-0.1758,-0.1794,-0.1822,-0.1863,-0.189,-0.1943,-0.1985,-0.2028,-0.2053,-0.2068,-0.2071,-0.2077,-0.2071,-0.2058,-0.2066,-0.2028,-0.207,-0.207,-0.207,-0.207,-0.207,-0.1574,-0.1599,-0.1637,-0.1675,-0.1703,-0.1734,-0.176,-0.1787,-0.1822,-0.1868,-0.1883,-0.1925,-0.1963,-0.2023,-0.2048,-0.2082,-0.2083,-0.2092,-0.2094,-0.2096,-0.2095,-0.2052,-0.209,-0.209,-0.209,-0.209,-0.209,0,-0.1606,-0.1631,-0.1666,-0.1711,-0.1741,-0.175,-0.1787,-0.1812,-0.1849,-0.1883,-0.1916,-0.1963,-0.2003,-0.2038,-0.208,-0.21,-0.2107,-0.211,-0.2109,-0.2115,-0.2092,-0.2083,-0.2103,-0.2103,-0.2103,-0.2103,-0.2103,-0.2103,-0.1626,-0.1668,-0.1685,-0.174,-0.1765,-0.1806,-0.1827,-0.1855,-0.1882,-0.1933,-0.1966,-0.1988,-0.2023,-0.2067,-0.2103,-0.2113,-0.2127,-0.2128,-0.2139,-0.2118,-0.2116,-0.2115,-0.2106,-0.2131,-0.2131,-0.2159,-0.2159,-0.2159]},{"header":{"parameterUnit":"m.s-1","parameterCategory":1,"la1":30.2991,"la2":30.254,"lo1":-89.0895,"lo2":-89.0444,"dy":0.0017,"dx":0.0017,"nx":28,"ny":28,"refTime":"2025-01-24T03:00:00:Z","depth":0,"parameterNumber":3,"parameterNumberName":"V-component_of_WINDS"},"data":[0,0,0,0,0,0,0,0,0,0,0,0,0,0,0,0,0,0,0,0,0,0,0,0,0,0,0,0,0,0,0,0,0,0,0,0,0,0,0,0,0,0,0,0,0,0,0,0,0,0,0,0,0,0,0,0,0,0,-0.1335,-0.1337,0,-0.1438,-0.144,-0.1441,-0.1499,-0.1499,-0.1499,-0.1499,-0.1605,-0.1608,-0.161,0,0,0,0,0,0,0,0,0,0,0,0,0,-0.1189,-0.1191,-0.1335,-0.1337,-0.1338,-0.1438,-0.144,-0.1441,-0.1499,-0.1499,-0.1499,-0.15,-0.1604,-0.1607,-0.1611,0,0,0,0,0,0,0,0,0,0,0,0,0,-0.1268,-0.1192,-0.1335,-0.1379,-0.1384,-0.1438,-0.144,-0.1442,-0.1499,-0.1499,-0.1499,-0.15,-0.1603,-0.1607,-0.1611,-0.163,0,0,-0.1623,-0.1625,0,0,0,0,0,0,0,0,-0.1264,-0.1274,-0.1371,-0.1376,-0.1382,-0.1456,-0.1427,-0.1505,-0.1499,-0.1455,-0.1499,-0.15,-0.1555,-0.1563,-0.1582,-0.1635,-0.1639,-0.1624,-0.1626,-0.1628,-0.1629,0,0,0,0,0,0,0,-0.1258,-0.1269,-0.1376,-0.1372,-0.1379,-0.1393,-0.1405,-0.1442,-0.1502,-0.1459,-0.1463,-0.1475,-0.1558,-0.1578,-0.1585,-0.1641,-0.1623,-0.1627,-0.1629,-0.1631,-0.1715,-0.1715,0,0,0,0,0,0,-0.1246,-0.1264,-0.1373,-0.1379,-0.1322,-0.1396,-0.1409,-0.1432,-0.1502,-0.1513,-0.1474,-0.1477,-0.1571,-0.158,-0.1589,-0.1616,-0.1628,-0.1631,-0.1634,-0.1715,-0.1715,-0.1714,0,0,0,0,0,0,-0.1242,-0.1255,-0.1369,-0.1323,-0.1339,-0.1398,-0.1424,-0.1434,-0.1454,-0.1514,-0.1525,-0.1484,-0.1572,-0.1583,-0.1619,-0.162,-0.1633,-0.1637,-0.1715,-0.1715,-0.1715,-0.1669,0,0,0,0,0,0,-0.1238,-0.1253,-0.1261,-0.1323,-0.1341,-0.1397,-0.1424,-0.1436,-0.146,-0.1465,-0.1525,-0.1536,-0.1573,-0.1613,-0.1623,-0.1626,-0.164,-0.1715,-0.1715,-0.1715,-0.1671,-0.1668,-0.1665,0,0,0,0,0,-0.1232,-0.1244,-0.1261,-0.1274,-0.1352,-0.1397,-0.1407,-0.145,-0.146,-0.1468,-0.1507,-0.1534,-0.1618,-0.1616,-0.1628,-0.1632,-0.1715,-0.1715,-0.1715,-0.1672,-0.1668,-0.1665,0,0,0,0,0,0,-0.118,-0.1253,-0.1272,-0.1304,-0.1344,-0.1407,-0.1419,-0.1444,-0.1482,-0.1485,-0.1536,-0.1549,-0.158,-0.161,-0.1606,-0.1654,-0.167,-0.1672,-0.1634,-0.163,-0.1627,-0.1619,-0.1643,0,0,0,0,0,-0.1173,-0.1203,-0.1265,-0.1287,-0.1306,-0.1359,-0.138,-0.1409,-0.1453,-0.147,-0.1511,-0.1552,-0.1588,-0.1611,-0.1647,-0.1676,-0.169,-0.1684,-0.1681,-0.1678,-0.1679,-0.1697,-0.1695,-0.1713,-0.1713,-0.1713,0,0,-0.1157,-0.12,-0.1217,-0.1278,-0.1312,-0.1343,-0.1373,-0.1404,-0.1427,-0.1475,-0.1511,-0.1543,-0.1592,-0.1624,-0.1641,-0.165,-0.1677,-0.1678,-0.1675,-0.1678,-0.1696,-0.1694,-0.1693,-0.1713,-0.1713,-0.1713,0,0,-0.1144,-0.118,-0.1203,-0.1236,-0.1288,-0.1323,-0.1328,-0.1387,-0.141,-0.1447,-0.1484,-0.1512,-0.1573,-0.1607,-0.1632,-0.1631,-0.1657,-0.1642,-0.1625,-0.1642,-0.164,-0.1639,-0.1639,-0.1639,-0.1643,-0.1643,-0.1643,0,-0.1119,-0.1166,-0.1211,-0.124,-0.1266,-0.1311,-0.1334,-0.1364,-0.1425,-0.1442,-0.1452,-0.1529,-0.1565,-0.1606,-0.1606,-0.1625,-0.1633,-0.1635,-0.1637,-0.1636,-0.1636,-0.1637,-0.1636,-0.1641,-0.1641,-0.1641,-0.1641,0,-0.1132,-0.1164,-0.1176,-0.1234,-0.1261,-0.1287,-0.1336,-0.1358,-0.1385,-0.1419,-0.1457,-0.1502,-0.1548,-0.156,-0.1587,-0.1605,-0.1609,-0.1627,-0.1644,-0.1631,-0.1633,-0.1633,-0.1637,-0.1638,-0.1639,-0.1639,0,0,-0.109,-0.1171,-0.1175,-0.1201,-0.1261,-0.1287,-0.1315,-0.1361,-0.1379,-0.1419,-0.1444,-0.1495,-0.1512,-0.154,-0.1571,-0.1585,-0.1583,-0.1602,-0.1604,-0.1597,-0.1605,-0.1591,-0.1591,-0.16,-0.16,-0.1601,-0.1601,0,-0.1085,-0.1138,-0.1179,-0.1216,-0.1247,-0.1289,-0.1314,-0.1353,-0.1386,-0.1416,-0.1452,-0.1487,-0.1507,-0.1525,-0.1541,-0.1579,-0.1585,-0.158,-0.1624,-0.1625,-0.161,-0.1592,-0.1577,-0.1576,-0.1602,-0.1602,-0.1602,0,-0.1088,-0.1126,-0.1166,-0.1223,-0.1237,-0.1259,-0.1303,-0.1332,-0.1378,-0.1401,-0.1432,-0.1464,-0.1496,-0.151,-0.1554,-0.155,-0.157,-0.1592,-0.1593,-0.1599,-0.1613,-0.1597,-0.1576,-0.1576,-0.1604,-0.1604,-0.1604,0,-0.1053,-0.1115,-0.1147,-0.1168,-0.1235,-0.1249,-0.1278,-0.1324,-0.1348,-0.1388,-0.1404,-0.1446,-0.147,-0.1502,-0.1545,-0.155,-0.1585,-0.1602,-0.1605,-0.1604,-0.161,-0.1609,-0.1592,-0.1623,-0.1623,-0.1623,-0.1623,0,-0.1044,-0.1067,-0.1132,-0.1151,-0.1178,-0.1225,-0.1251,-0.1283,-0.1324,-0.135,-0.139,-0.1414,-0.1469,-0.15,-0.1534,-0.1566,-0.1576,-0.1595,-0.1604,-0.1592,-0.1589,-0.1606,-0.1607,-0.1623,-0.1623,-0.1623,-0.1623,0,-0.1009,-0.1054,-0.1091,-0.1152,-0.1167,-0.1184,-0.1236,-0.1257,-0.1292,-0.1325,-0.1336,-0.139,-0.1429,-0.1474,-0.1528,-0.1551,-0.158,-0.1593,-0.1564,-0.1569,-0.1569,-0.1569,-0.1563,-0.1565,-0.1593,-0.1593,-0.1593,0,-0.1001,-0.1019,-0.1081,-0.1102,-0.113,-0.1162,-0.1188,-0.1235,-0.126,-0.1313,-0.1328,-0.1369,-0.1405,-0.1465,-0.1509,-0.155,-0.1565,-0.156,-0.1571,-0.1558,-0.1565,-0.1563,-0.1565,-0.1557,-0.1556,-0.1556,-0.1555,0,-0.0981,-0.1002,-0.1037,-0.1079,-0.1108,-0.1144,-0.1181,-0.1196,-0.1251,-0.1277,-0.1317,-0.1344,-0.1399,-0.144,-0.1487,-0.1517,-0.1545,-0.1551,-0.1554,-0.1542,-0.1525,-0.1534,-0.1556,-0.1551,-0.1552,-0.1552,-0.1552,-0.1552,-0.0959,-0.0978,-0.1024,-0.1062,-0.1095,-0.1129,-0.1151,-0.1189,-0.1223,-0.1271,-0.1297,-0.1336,-0.1382,-0.1448,-0.1477,-0.1508,-0.1518,-0.1522,-0.1523,-0.1524,-0.152,-0.1519,-0.1517,-0.1517,-0.1517,-0.1517,-0.1518,0,-0.0942,-0.0974,-0.1007,-0.1058,-0.1088,-0.1112,-0.1155,-0.1178,-0.1212,-0.1252,-0.1286,-0.1332,-0.1372,-0.142,-0.1463,-0.1479,-0.1493,-0.1489,-0.1488,-0.1494,-0.1509,-0.1502,-0.1476,-0.1476,-0.1476,-0.1476,-0.1476,-0.1477,-0.0936,-0.0968,-0.0994,-0.1044,-0.1076,-0.1115,-0.1137,-0.1169,-0.1201,-0.125,-0.1284,-0.1314,-0.1358,-0.1404,-0.1442,-0.1455,-0.1469,-0.1461,-0.1478,-0.149,-0.1493,-0.1497,-0.1491,-0.1463,-0.1463,-0.1461,-0.1461,-0.1461]}]]